Starlink 31459

operational
NORAD ID: 59233 Int'l Des: 2024-049 Owner: SPXS Country: US Constellation: starlink
LEOCIRCULAR

关于 Starlink 31459

正在加载描述...

实时位置

正在加载3D地球...

即将过境

高度历史

Altitude vs Time

uPlot chart will show altitude changes over time

两行轨道根数

1 59233U 24049C 25302.90089998 -.00000007 00000-0 92658-5 0 9998
2 59233 43.0007 162.1593 0000970 273.4718 86.6023 15.27579939 92398
Epoch: Oct 29, 2025 • Age: 18 hours

当前状态

高度 495.7 km
速度 7.62 km/s
星下点 -43.11°S, 150.96°E
发射日期 Mar 16, 2024
运行时间 1.6 years
类型 internet

技术详情

分类 Payload
质量 730.00 kg
干质量 700.00 kg
总质量 730.00 kg
长度 0.30 m
直径 4.10 m
跨度 29.00 m
形状 Box + pan
制造商 SPXS
平台类型 Starlink V2M
阶段状态 In Orbit
所有者/国家 SPXS/US

大型星座

Loading constellations...